| time (UTC) | temp C | wind direction | speed KPH | gust KPH | rain 1hr cm | rain 24hr cm | rain mn cm | humidity % | barometer mb |
| 20260505021320 | 10 | 19 | 3.2 | 3.2 | 0.00 | 0.00 | 0.00 | 77 | 1008.8 |
| 20260505020320 | 10 | 46 | 1.6 | 3.2 | 0.00 | 0.00 | 0.00 | 76 | 1008.8 |
| 20260505015820 | 10 | 50 | 0.0 | 3.2 | 0.00 | 0.00 | 0.00 | 75 | 1008.9 |
| 20260505015320 | 11 | 25 | 0.0 | 3.2 | 0.00 | 0.00 | 0.00 | 75 | 1009.2 |
| 20260505014820 | 11 | 29 | 0.0 | 3.2 | 0.00 | 0.00 | 0.00 | 75 | 1009.3 |
| 20260505013820 | 11 | 57 | 0.0 | 3.2 | 0.00 | 0.00 | 0.00 | 74 | 1009.0 |
| 20260505012820 | 11 | 30 | 1.6 | 3.2 | 0.00 | 0.00 | 0.00 | 74 | 1009.0 |
| 20260505012321 | 11 | 33 | 0.0 | 3.2 | 0.00 | 0.00 | 0.00 | 74 | 1009.2 |
| 20260505011820 | 11 | 41 | 3.2 | 3.2 | 0.00 | 0.00 | 0.00 | 73 | 1008.8 |
| 20260505011320 | 11 | 322 | 0.0 | 4.8 | 0.00 | 0.00 | 0.00 | 73 | 1008.9 |
| 20260505010820 | 11 | 30 | 3.2 | 4.8 | 0.00 | 0.00 | 0.00 | 72 | 1009.2 |
| 20260505010320 | 11 | 28 | 3.2 | 6.4 | 0.00 | 0.00 | 0.00 | 71 | 1009.3 |
| 20260505005820 | 12 | 64 | 1.6 | 6.4 | 0.00 | 0.00 | 0.00 | 70 | 1009.3 |
| 20260505005320 | 12 | 344 | 1.6 | 4.8 | 0.00 | 0.00 | 0.00 | 70 | 1009.3 |
| 20260505004320 | 12 | 13 | 1.6 | 4.8 | 0.00 | 0.00 | 0.00 | 69 | 1009.3 |
| 20260505003820 | 12 | 45 | 3.2 | 4.8 | 0.00 | 0.00 | 0.00 | 69 | 1009.5 |
| 20260505003320 | 12 | 37 | 3.2 | 4.8 | 0.00 | 0.00 | 0.00 | 69 | 1009.4 |
| 20260505002820 | 12 | 34 | 3.2 | 4.8 | 0.00 | 0.00 | 0.00 | 67 | 1009.5 |
| 20260505002320 | 13 | 24 | 1.6 | 4.8 | 0.00 | 0.00 | 0.00 | 65 | 1009.2 |
| 20260505001320 | 13 | 48 | 1.6 | 4.8 | 0.00 | 0.00 | 0.00 | 64 | 1009.3 |
| 20260505000820 | 13 | 35 | 1.6 | 4.8 | 0.00 | 0.00 | 0.00 | 63 | 1009.5 |
| 20260505000320 | 13 | 24 | 3.2 | 4.8 | 0.00 | 0.00 | 0.00 | 63 | 1009.5 |
| 20260504235820 | 13 | 13 | 3.2 | 4.8 | 0.00 | 0.00 | 0.00 | 64 | 1009.4 |
| 20260504234820 | 13 | 53 | 0.0 | 3.2 | 0.00 | 0.00 | 0.00 | 64 | 1009.6 |
| 20260504234320 | 14 | 21 | 3.2 | 3.2 | 0.00 | 0.00 | 0.00 | 63 | 1009.5 |
| 20260504233320 | 14 | 47 | 1.6 | 4.8 | 0.00 | 0.00 | 0.00 | 60 | 1009.6 |
| 20260504232820 | 15 | 15 | 1.6 | 4.8 | 0.00 | 0.00 | 0.00 | 59 | 1009.6 |
| 20260504232319 | 15 | 29 | 0.0 | 4.8 | 0.00 | 0.00 | 0.00 | 58 | 1009.9 |
| 20260504231821 | 15 | 60 | 0.0 | 4.8 | 0.00 | 0.00 | 0.00 | 57 | 1009.9 |
| 20260504231320 | 15 | 25 | 3.2 | 4.8 | 0.00 | 0.00 | 0.00 | 56 | 1009.8 |
| 20260504230320 | 16 | 27 | 1.6 | 3.2 | 0.00 | 0.00 | 0.00 | 54 | 1009.6 |
| 20260504225820 | 16 | 230 | 0.0 | 4.8 | 0.00 | 0.00 | 0.00 | 52 | 1009.7 |
| 20260504225319 | 17 | 232 | 1.6 | 6.4 | 0.00 | 0.00 | 0.00 | 51 | 1009.9 |
| 20260504224821 | 17 | 200 | 3.2 | 8.0 | 0.00 | 0.00 | 0.00 | 51 | 1009.9 |
| 20260504223820 | 17 | 177 | 3.2 | 6.4 | 0.00 | 0.00 | 0.00 | 50 | 1010.1 |
| 20260504223320 | 17 | 219 | 6.4 | 6.4 | 0.00 | 0.00 | 0.00 | 50 | 1009.9 |
| 20260504222820 | 17 | 131 | 0.0 | 3.2 | 0.00 | 0.00 | 0.00 | 50 | 1009.6 |
| 20260504221749 | 17 | 33 | 1.6 | 11.3 | 0.00 | 0.00 | 0.00 | 49 | 1009.9 |
| 20260504221249 | 17 | 202 | 11.3 | 11.3 | 0.00 | 0.00 | 0.00 | 48 | 1009.8 |
| 20260504220750 | 17 | 198 | 3.2 | 9.7 | 0.00 | 0.00 | 0.00 | 48 | 1009.8 |
| 20260504220249 | 18 | 197 | 4.8 | 4.8 | 0.00 | 0.00 | 0.00 | 47 | 1009.9 |
| 20260504215748 | 18 | 195 | 1.6 | 4.8 | 0.00 | 0.00 | 0.00 | 47 | 1009.8 |
| 20260504215249 | 18 | 174 | 3.2 | 9.7 | 0.00 | 0.00 | 0.00 | 46 | 1009.7 |
| 20260504214750 | 18 | 59 | 3.2 | 14.5 | 0.00 | 0.00 | 0.00 | 46 | 1009.9 |
| 20260504214249 | 18 | 141 | 4.8 | 14.5 | 0.00 | 0.00 | 0.00 | 45 | 1009.8 |
| 20260504212748 | 18 | 203 | 3.2 | 11.3 | 0.00 | 0.00 | 0.00 | 44 | 1009.7 |
| 20260504212250 | 18 | 211 | 3.2 | 9.7 | 0.00 | 0.00 | 0.00 | 44 | 1009.8 |
| 20260504211248 | 18 | 233 | 1.6 | 11.3 | 0.00 | 0.00 | 0.00 | 43 | 1010.0 |
| 20260504210248 | 19 | 216 | 3.2 | 9.7 | 0.00 | 0.00 | 0.00 | 42 | 1009.9 |
| 20260504205749 | 19 | 243 | 3.2 | 19.3 | 0.00 | 0.00 | 0.00 | 42 | 1010.2 |
| 20260504205248 | 19 | 178 | 3.2 | 19.3 | 0.00 | 0.00 | 0.00 | 41 | 1010.0 |
| 20260504204748 | 19 | 217 | 6.4 | 9.7 | 0.00 | 0.00 | 0.00 | 41 | 1010.0 |
| 20260504204249 | 19 | 226 | 1.6 | 12.9 | 0.00 | 0.00 | 0.00 | 41 | 1010.2 |
| 20260504203748 | 19 | 99 | 3.2 | 17.7 | 0.00 | 0.00 | 0.00 | 41 | 1010.2 |
| 20260504203249 | 19 | 111 | 6.4 | 17.7 | 0.00 | 0.00 | 0.00 | 40 | 1010.2 |
| 20260504202248 | 20 | 175 | 3.2 | 11.3 | 0.00 | 0.00 | 0.00 | 40 | 1010.1 |
| 20260504201749 | 20 | 224 | 9.7 | 20.9 | 0.00 | 0.00 | 0.00 | 39 | 1010.1 |
| 20260504201248 | 20 | 151 | 6.4 | 20.9 | 0.00 | 0.00 | 0.00 | 39 | 1010.0 |
| 20260504200749 | 20 | 205 | 8.0 | 20.9 | 0.00 | 0.00 | 0.00 | 39 | 1010.1 |
| 20260504200248 | 20 | 199 | 16.1 | 19.3 | 0.00 | 0.00 | 0.00 | 38 | 1010.1 |
| 20260504195749 | 20 | 201 | 4.8 | 19.3 | 0.00 | 0.00 | 0.00 | 38 | 1010.2 |
| 20260504195249 | 20 | 210 | 8.0 | 17.7 | 0.00 | 0.00 | 0.00 | 38 | 1010.2 |
| 20260504194749 | 20 | 198 | 4.8 | 17.7 | 0.00 | 0.00 | 0.00 | 38 | 1010.2 |
| 20260504194248 | 20 | 193 | 3.2 | 17.7 | 0.00 | 0.00 | 0.00 | 37 | 1010.1 |
| 20260504193749 | 20 | 179 | 9.7 | 17.7 | 0.00 | 0.00 | 0.00 | 37 | 1010.3 |
| 20260504193249 | 20 | 182 | 8.0 | 17.7 | 0.00 | 0.00 | 0.00 | 37 | 1010.3 |
| 20260504192749 | 20 | 220 | 6.4 | 17.7 | 0.00 | 0.00 | 0.00 | 37 | 1010.3 |
| 20260504192248 | 20 | 180 | 6.4 | 20.9 | 0.00 | 0.00 | 0.00 | 36 | 1010.4 |
| 20260504191749 | 20 | 206 | 11.3 | 20.9 | 0.00 | 0.00 | 0.00 | 36 | 1010.2 |
| 20260504191248 | 21 | 85 | 9.7 | 19.3 | 0.00 | 0.00 | 0.00 | 36 | 1010.4 |
| 20260504190749 | 21 | 206 | 6.4 | 17.7 | 0.00 | 0.00 | 0.00 | 36 | 1010.3 |
| 20260504190248 | 21 | 187 | 4.8 | 20.9 | 0.00 | 0.00 | 0.00 | 36 | 1010.1 |
| 20260504185749 | 21 | 134 | 3.2 | 20.9 | 0.00 | 0.00 | 0.00 | 36 | 1010.4 |
| 20260504185249 | 21 | 158 | 6.4 | 14.5 | 0.00 | 0.00 | 0.00 | 36 | 1010.5 |
| 20260504184749 | 21 | 69 | 1.6 | 14.5 | 0.00 | 0.00 | 0.00 | 35 | 1010.6 |
| 20260504184248 | 21 | 179 | 9.7 | 14.5 | 0.00 | 0.00 | 0.00 | 36 | 1010.2 |
| 20260504182749 | 21 | 186 | 6.4 | 8.0 | 0.00 | 0.00 | 0.00 | 36 | 1010.5 |
| 20260504182248 | 21 | 137 | 4.8 | 14.5 | 0.00 | 0.00 | 0.00 | 36 | 1010.5 |
| 20260504181748 | 21 | 210 | 0.0 | 14.5 | 0.00 | 0.00 | 0.00 | 35 | 1010.7 |
| 20260504181249 | 21 | 123 | 3.2 | 9.7 | 0.00 | 0.00 | 0.00 | 35 | 1010.4 |
| 20260504180748 | 21 | 159 | 6.4 | 9.7 | 0.00 | 0.00 | 0.00 | 35 | 1010.5 |
| 20260504180248 | 21 | 92 | 4.8 | 17.7 | 0.00 | 0.00 | 0.00 | 35 | 1010.4 |
| 20260504175749 | 22 | 143 | 6.4 | 17.7 | 0.00 | 0.00 | 0.00 | 34 | 1010.5 |
| 20260504174750 | 22 | 173 | 3.2 | 9.7 | 0.00 | 0.00 | 0.00 | 33 | 1010.7 |
| 20260504174249 | 22 | 128 | 0.0 | 9.7 | 0.00 | 0.00 | 0.00 | 33 | 1010.6 |
| 20260504173748 | 22 | 220 | 6.4 | 12.9 | 0.00 | 0.00 | 0.00 | 33 | 1010.6 |
| 20260504172749 | 23 | 114 | 3.2 | 16.1 | 0.00 | 0.00 | 0.00 | 33 | 1010.3 |
| 20260504172248 | 23 | 104 | 9.7 | 16.1 | 0.00 | 0.00 | 0.00 | 33 | 1010.6 |
| 20260504171749 | 23 | 86 | 8.0 | 14.5 | 0.00 | 0.00 | 0.00 | 33 | 1010.6 |
| 20260504171249 | 23 | 141 | 3.2 | 14.5 | 0.00 | 0.00 | 0.00 | 33 | 1010.6 |
| 20260504170748 | 23 | 163 | 3.2 | 12.9 | 0.00 | 0.00 | 0.00 | 32 | 1010.5 |
| 20260504170248 | 23 | 137 | 3.2 | 16.1 | 0.00 | 0.00 | 0.00 | 32 | 1010.5 |
| 20260504160248 | 26 | 190 | 12.9 | 16.1 | 0.00 | 0.00 | 0.00 | 29 | 1010.8 |
| 20260504150744 | 26 | 193 | 8.0 | 14.5 | 0.00 | 0.00 | 0.00 | 29 | 1011.0 |
| 20260504150246 | 26 | 94 | 8.0 | 14.5 | 0.00 | 0.00 | 0.00 | 29 | 1011.0 |
| 20260504141244 | 26 | 164 | 4.8 | 20.9 | 0.00 | 0.00 | 0.00 | 28 | 1011.7 |
| 20260504140744 | 26 | 200 | 6.4 | 19.3 | 0.00 | 0.00 | 0.00 | 28 | 1011.5 |
| 20260504140244 | 26 | 162 | 6.4 | 16.1 | 0.00 | 0.00 | 0.00 | 30 | 1011.6 |
| 20260504130245 | 26 | 206 | 11.3 | 19.3 | 0.00 | 0.00 | 0.00 | 34 | 1012.4 |
| 20260504120242 | 25 | 157 | 3.2 | 17.7 | 0.00 | 0.00 | 0.00 | 38 | 1012.9 |
| 20260504100244 | 26 | 22 | 1.6 | 12.9 | 0.00 | 0.00 | 0.00 | 40 | 1014.1 |
| 20260504081738 | 21 | 209 | 3.2 | 22.5 | 0.00 | 0.00 | 0.00 | 46 | 1014.5 |
| 20260504081238 | 21 | 231 | 16.1 | 22.5 | 0.00 | 0.00 | 0.00 | 47 | 1014.3 |
| 20260504080739 | 21 | 239 | 6.4 | 17.7 | 0.00 | 0.00 | 0.00 | 47 | 1014.3 |
| 20260504080238 | 21 | 209 | 4.8 | 16.1 | 0.00 | 0.00 | 0.00 | 49 | 1014.4 |
| 20260504060238 | 16 | 236 | 6.4 | 9.7 | 0.00 | 0.00 | 0.00 | 59 | 1014.0 |
| 20260504050237 | 13 | 222 | 1.6 | 4.8 | 0.00 | 0.00 | 0.00 | 64 | 1013.5 |
| 20260504045737 | 13 | 345 | 0.0 | 4.8 | 0.00 | 0.00 | 0.00 | 66 | 1013.5 |
| 20260504045236 | 13 | 191 | 3.2 | 4.8 | 0.00 | 0.00 | 0.00 | 66 | 1013.3 |
| 20260504044737 | 13 | 224 | 0.0 | 3.2 | 0.00 | 0.00 | 0.00 | 67 | 1013.3 |
| 20260504044237 | 12 | 161 | 1.6 | 4.8 | 0.00 | 0.00 | 0.00 | 67 | 1013.3 |
| 20260504043738 | 12 | 200 | 3.2 | 4.8 | 0.00 | 0.00 | 0.00 | 68 | 1013.7 |
| 20260504043237 | 12 | 205 | 0.0 | 3.2 | 0.00 | 0.00 | 0.00 | 68 | 1013.4 |
| 20260504042737 | 12 | 34 | 0.0 | 3.2 | 0.00 | 0.00 | 0.00 | 68 | 1013.5 |
| 20260504041238 | 11 | 50 | 0.0 | 3.2 | 0.00 | 0.00 | 0.00 | 71 | 1013.3 |
| 20260504040737 | 11 | 32 | 0.0 | 3.2 | 0.00 | 0.00 | 0.00 | 71 | 1013.3 |
| 20260504040237 | 11 | 59 | 0.0 | 3.2 | 0.00 | 0.00 | 0.00 | 71 | 1013.2 |
| 20260504035237 | 11 | 64 | 3.2 | 3.2 | 0.00 | 0.00 | 0.00 | 71 | 1013.4 |
| 20260504034737 | 11 | 38 | 0.0 | 3.2 | 0.00 | 0.00 | 0.00 | 70 | 1013.1 |
| 20260504034238 | 11 | 28 | 1.6 | 3.2 | 0.00 | 0.00 | 0.00 | 70 | 1013.3 |
| 20260504033738 | 11 | 19 | 0.0 | 3.2 | 0.00 | 0.00 | 0.00 | 69 | 1013.3 |
| 20260504032738 | 11 | 29 | 0.0 | 3.2 | 0.00 | 0.00 | 0.00 | 68 | 1013.5 |
| 20260504032237 | 12 | 197 | 0.0 | 6.4 | 0.00 | 0.00 | 0.00 | 67 | 1013.4 |
| 20260504031737 | 12 | 230 | 0.0 | 6.4 | 0.00 | 0.00 | 0.00 | 67 | 1013.3 |
| 20260504031238 | 11 | 35 | 0.0 | 6.4 | 0.00 | 0.00 | 0.00 | 67 | 1013.4 |
| 20260504030737 | 11 | 62 | 1.6 | 8.0 | 0.00 | 0.00 | 0.00 | 68 | 1013.7 |
| 20260504025738 | 11 | 58 | 1.6 | 3.2 | 0.00 | 0.00 | 0.00 | 67 | 1013.3 |
| 20260504025236 | 12 | 241 | 1.6 | 3.2 | 0.00 | 0.00 | 0.00 | 64 | 1013.3 |
| 20260504024737 | 12 | 126 | 0.0 | 4.8 | 0.00 | 0.00 | 0.00 | 63 | 1013.2 |
| 20260504023738 | 13 | 150 | 3.2 | 6.4 | 0.00 | 0.00 | 0.00 | 61 | 1013.3 |
| 20260504023237 | 13 | 214 | 1.6 | 6.4 | 0.00 | 0.00 | 0.00 | 61 | 1013.4 |
| 20260504022737 | 13 | 240 | 3.2 | 6.4 | 0.00 | 0.00 | 0.00 | 61 | 1013.4 |